Regional Weather Roundup
Issued by NWS

Home | Current Version | Previous Version | Graphics & Text | Print | Product List | Glossary Off
Versions: 1 2 3 4 5 6 7 8 9 10 11 12 13 14 15 16 17 18 19 20 21 22 23 24 25 26 27 28 29 30 31 32 33 34 35 36 37 38 39 40 41 42 43 44 45 46 47 48 49 50

000
ASUS43 KMPX 301010
RWRMN
WEATHER ROUNDUP FOR MINNESOTA
NATIONAL WEATHER SERVICE TWIN CITIES/CHANHASSEN MN
500 AM CDT TUE JUN 30 2015


NOTE: "FAIR" INDICATES FEW OR NO CLOUDS BELOW 12,000 FEET WITH NO
SIGNIFICANT WEATHER AND/OR OBSTRUCTIONS TO VISIBILITY. N/A MEANS
CURRENT SKY AND/OR WEATHER CONDITIONS ARE NOT AVAILABLE.

MNZ060>063-068>070-301100-
   Twin Cities Metro

CITY           SKY/WX    TMP DP  RH WIND       PRES   REMARKS
TWIN CITIES    CLEAR     63  60  90 N9        29.86R
ST PAUL        CLEAR     63  60  90 NW5       29.86R
CRYSTAL        CLEAR     64  59  83 N6        29.86R
BLAINE         CLEAR     63  61  94 N5        29.87R
LAKEVILLE      CLEAR     61  61 100 N6        29.86R
EDEN PRAIRIE   CLEAR     63  60  90 N7        29.85S
SOUTH ST PAUL  CLEAR     64  62  93 N5        29.86R
LAKE ELMO      FAIR      61  61 100 N6        29.87R
$$
MNZ001>005-007-008-013>017-022>024-027-028-301100-
   Northwest Minnesota

CITY           SKY/WX    TMP DP  RH WIND       PRES   REMARKS
BEMIDJI        CLEAR     51  50  97 NE3       29.95R
HALLOCK        FOG       54  52  94 CALM      29.95R VSB 1/2
ROSEAU         CLEAR     54  48  82 CALM      29.97R HAZE
WARROAD        PTCLDY    57  54  88 SE6       29.97S
THIEF RVR FALL CLEAR     57  55  94 NE7       29.96R
CROOKSTON      FOG       55  55 100 CALM      29.95S VSB 1/4
FOSSTON        CLEAR     52  50  93 CALM      29.96R
DETROIT LAKES  PTCLDY    59  57  94 CALM      29.95R
MOORHEAD       PTCLDY    55  55 100 N3        29.94R FOG
PARK RAPIDS    CLEAR     57  55  93 N3        29.93S
MAHNOMEN       FAIR      55  55  99 CALM      29.95R FOG
$$
MNZ006-009>011-018-025>026-301100-
   North Central Minnesota

CITY           SKY/WX    TMP DP  RH WIND       PRES   REMARKS
BAUDETTE       CLEAR     53  50  89 E3        29.97R
FLAG ISLAND    PTCLDY    59  52  77 E3        29.96S
INTL FALLS     CLEAR     50  47  89 CALM      29.96R
WASKISH        PTCLDY    54  52  94 E5        29.96S
BIG FORK       CLEAR     50  48  93 CALM      29.96R FOG
LONGVILLE      CLEAR     57  55  94 NE3       29.93R
GRAND RAPIDS   CLEAR     55  52  88 N5        29.94R
CRANE LAKE     CLOUDY    55  50  82 NE5       29.97R
ORR            MOCLDY    50  46  87 CALM      29.93R
COOK           CLEAR     54  52  94 N3        29.95R
WALKER         FAIR      52  51  99 CALM      29.94R FOG
$$
MNZ012-019>021-037-301100-
   Northeast Minnesota

CITY           SKY/WX    TMP DP  RH WIND       PRES   REMARKS
DULUTH         CLOUDY    60  56  86 NE7       29.91R
ELY            CLOUDY    55  50  82 E8        29.95R
HIBBING        CLEAR     53  51  93 N5        29.93R
EVELETH        CLEAR     54  54 100 NE5       29.94R
DULUTH HARBOR  CLOUDY    63  59  88 NE9       29.90R
TWO HARBORS    CLOUDY    61  55  82 E7        29.90R
GRAND MARAIS     N/A     53  45  74 E8        29.92R
G MARAIS ARPRT CLEAR     45  39  81 N15G22    29.94R
$$
MNZ029>031-032-039>041-046>048-054>057-064-301100-
   West Central Minnesota

CITY           SKY/WX    TMP DP  RH WIND       PRES   REMARKS
FERGUS FALLS   PTCLDY    63  61  94 CALM      29.93R
WHEATON        PTCLDY    57  57 100 CALM      29.94R FOG
MORRIS         PTCLDY    61  59  94 CALM      29.91R FOG
ALEXANDRIA     PTCLDY    61  57  87 NE5       29.94R
ELBOW LAKE     FAIR      63  60  90 NE6       29.92R
WADENA         CLEAR     54  52  94 CALM      29.93R FOG
GLENWOOD       PTCLDY    61  57  88 NE6       29.93R
APPLETON       PTCLDY    63  59  88 CALM      29.91R FOG
BENSON         PTCLDY    61  57  88 CALM      29.92R FOG
ORTONVILLE     PTCLDY    63  61  94 NW5       29.92R
MADISON        PTCLDY    61  57  88 NW5       29.92R
WILLMAR        FAIR      63  63 100 N6        29.91S
$$
MNZ033>034-036-042>043-049>051-058-059-301100-
   Central Minnesota

CITY           SKY/WX    TMP DP  RH WIND       PRES   REMARKS
ST CLOUD       CLEAR     59  57  93 N3        29.90R FOG
SAUK CENTRE    FAIR      59  57  94 CALM      29.92S
PAYNESVILLE    CLOUDY    57  57  97 N3        29.91S
AITKIN         HAZE      52  46  82 CALM      29.91R VSB 1/2
PINE RIVER     CLEAR     52  52 100 CALM      29.96S FOG
BRAINERD       CLEAR     56  55  97 CALM      29.92R
STAPLES        CLEAR     55  55 100 CALM      29.93R FOG
LONG PRAIRIE   CLOUDY    57  55  94 CALM      29.93R
LITTLE FALLS     N/A     52  52 100 CALM      29.91S FOG
LITCHFIELD     CLEAR     64  63  94 CALM      29.90S
BUFFALO        CLEAR     62  57  84 N5        29.90R
MAPLE LAKE     CLEAR     62  59  91 N3        29.90R
$$
MNZ037-044-045-052-053-301100-
   East Central Minnesota

CITY           SKY/WX    TMP DP  RH WIND       PRES   REMARKS
PRINCETON      CLEAR     59  57  94 CALM      29.90R
MORA           CLEAR     55  54  94 CALM      29.91R
CAMBRIDGE      CLEAR     61  54  77 CALM      29.87R
MOOSE LAKE     PTCLDY    55  55 100 CALM      29.88R FOG
HINCKLEY       FAIR      57  55  94 N5        29.90R
CLOQUET        MOCLDY    55  54  94 N6        29.91R
MCGREGOR       CLEAR     55  54  94 N3        29.92R
$$
MNZ071>073-080-081-089-090-097-098-301100-
   Southwest Minnesota

CITY           SKY/WX    TMP DP  RH WIND       PRES   REMARKS
MONTEVIDEO     CLEAR     63  61  94 CALM      29.91S
GRANITE FALLS  CLOUDY    63  62  96 CALM      29.92R
CANBY          PTCLDY    62  59  92 W5        29.94R
MARSHALL       PTCLDY    63  57  82 NW6       29.92R
REDWOOD FALLS  PTCLDY    64  62  93 N6        29.89R FOG
OLIVIA         PTCLDY    59  55  88 N5        29.89R FOG
PIPESTONE      PTCLDY    61  59  94 CALM      29.94R FOG
WINDOM         PTCLDY    63  61  94 CALM      29.91R
WORTHINGTON    CLOUDY    63  57  82 NW7       29.93R
JACKSON        PTCLDY    63  61  94 NW5       29.91S FOG
TRACY          CLOUDY    64  62  96 NW5       29.92R
SLAYTON        MOCLDY    62  62  99 CALM      29.94R
$$
MNZ065>067-074>077-082>085-091>093-301100-
   South Central Minnesota

CITY           SKY/WX    TMP DP  RH WIND       PRES   REMARKS
MANKATO        CLEAR     64  61  88 N7        29.86S
NEW ULM        CLEAR     64  63  94 N5        29.88R
ST JAMES       CLEAR     64  63  94 NW6       29.89R FOG
FAIRMONT       CLEAR     64  57  77 NW7       29.88R
GLENCOE        CLEAR     63  61  94 N3        29.88R
FARIBAULT      CLEAR     57  57 100 CALM      29.86S FOG
OWATONNA       FOG       57  55  94 CALM      29.86S VSB 1/4
WASECA         CLEAR     59  57  94 N6        29.88R FOG
ALBERT LEA     CLEAR     64  63  94 CALM      29.86R FOG
$$
MNZ078>079-086>088-094>096-301100-
   Southeast Minnesota

CITY           SKY/WX    TMP DP  RH WIND       PRES   REMARKS
ROCHESTER      CLEAR     58  56  93 NW3       29.86S
RED WING       FOG       59  57  94 CALM      29.84R VSB 1/4
STANTON          N/A     57  55  94 CALM      29.84S VSB 1/2
DODGE CENTER   PTCLDY    59  57  94 N3        29.86R
WINONA         PTCLDY    55  55 100 NW3       29.84S FOG
AUSTIN         CLEAR     57  55  94 CALM      29.86R FOG
PRESTON        CLEAR     57  55  95 CALM      29.86S FOG
$$
ABBREVIATIONS USED IN REMARKS
   TC - TEMPERATURES IN CELSIUS
  WCI - WIND CHILL INDEX
   HX - HEAT INDEX
  VSB - VISIBILITY
$$


USA.gov is the U.S. government's official web portal to all federal, state and local government web resources and services.